Weather History for KNXP - June, 2014

Change the Weather History Date:

Friday, June 27, 2014

  Actual Average Record
Temperature  
Mean Temperature 86 °F -  
Max Temperature 100 °F 98 °F 107 °F (2013)
Min Temperature 73 °F 72 °F 63 °F (2005)
Cooling Degree Days 21    
Growing Degree Days 36 (Base 50)    
Moisture  
Dew Point 43 °F    
Average Humidity 26    
Maximum Humidity 42    
Minimum Humidity 10    
Precipitation  
Precipitation 0.00 in - - ()
Sea Level Pressure  
Sea Level Pressure 29.73 in    
Wind  
Wind Speed 19 mph (NW)    
Max Wind Speed 34 mph    
Max Gust Speed 45 mph    
Visibility 9 miles    
Events Rain    
Averages and records for this station are not official NWS values.
T = Trace of Precipitation, MM = Missing Value Source: NWS Daily Summary

Daily Weather History Graph

Daily Weather History Graph

Search for Another Location

Airport or City:

Trip Planner

Search our weather history database for the weather conditions in past years. The results will help you decide how hot, cold, wet, or windy it might be!

Date:

Astronomy

Jun. 27, 2014 Rise Set
Actual Time 5:34 AM PDT 8:00 PM PDT
Civil Twilight 5:05 AM PDT 8:30 PM PDT
Nautical Twilight 4:29 AM PDT 9:06 PM PDT
Astronomical Twilight 3:49 AM PDT 9:45 PM PDT
Moon 6:04 AM PDT (6/27) 8:13 PM PDT (6/27)
Length of Visible Light 15h 24m
Length of Day
14h 25m
New Moon, 0% of the Moon is Illuminated
Jun 27
New Moon
Jul 5
First Quarter
Jul 12
Full
Jul 18
Last Quarter
Jul 26
New

Hourly Weather History & Observations

Time (PDT) Temp. Dew Point Humidity Pressure Visibility Wind Dir Wind Speed Gust Speed Precip Events Conditions
12:10 AM 77.0 °F 52.0 °F 42% 29.83 in 6.0 mi WNW 31.1 mph 42.6 mph N/A   Haze
12:25 AM 77.0 °F 51.1 °F 40% 29.81 in 1.8 mi WNW 34.5 mph 44.9 mph N/A   Haze
12:33 AM 77.0 °F 51.1 °F 40% 29.83 in 3.0 mi NW 27.6 mph 44.9 mph 0.00 in Rain Light Rain
12:56 AM 75.9 °F 50.0 °F 40% 29.72 in 9.0 mi North 6.9 mph - 0.00 in   Clear
1:56 AM 75.0 °F 48.9 °F 40% 29.70 in 10.0 mi WNW 21.9 mph 29.9 mph N/A   Clear
2:56 AM 73.9 °F 46.9 °F 38% 29.70 in 10.0 mi NW 13.8 mph - N/A   Clear
3:56 AM 73.9 °F 46.9 °F 38% 29.70 in 10.0 mi NNW 13.8 mph - N/A   Clear
4:56 AM 73.0 °F 46.9 °F 39% 29.72 in 10.0 mi NNW 10.4 mph - N/A   Clear
5:56 AM 73.0 °F 46.9 °F 39% 29.74 in 10.0 mi NNW 11.5 mph - N/A   Clear
6:56 AM 75.0 °F 45.0 °F 34% 29.76 in 10.0 mi NNW 9.2 mph - N/A   Clear
7:56 AM 78.1 °F 45.0 °F 31% 29.78 in 10.0 mi NW 13.8 mph - N/A   Clear
8:56 AM 82.9 °F 43.0 °F 24% 29.78 in 10.0 mi NW 17.3 mph - N/A   Clear
9:56 AM 86.0 °F 43.0 °F 22% 29.77 in 10.0 mi NW 16.1 mph 21.9 mph N/A   Clear
10:56 AM 90.0 °F 42.1 °F 19% 29.78 in 10.0 mi WNW 12.7 mph 19.6 mph N/A   Clear
11:56 AM 93.0 °F 39.0 °F 15% 29.77 in 10.0 mi NNW 6.9 mph - N/A   Clear
12:56 PM 93.9 °F 37.0 °F 14% 29.75 in 10.0 mi North 3.5 mph - N/A   Clear
1:56 PM 95.0 °F 37.0 °F 13% 29.73 in 10.0 mi Variable 6.9 mph - N/A   Clear
2:56 PM 98.1 °F 37.0 °F 12% 29.71 in 10.0 mi North 8.1 mph - N/A   Clear
3:56 PM 99.0 °F 37.0 °F 12% 29.68 in 10.0 mi North 10.4 mph - N/A   Clear
4:56 PM 99.0 °F 33.1 °F 10% 29.67 in 10.0 mi WNW 12.7 mph 18.4 mph N/A   Clear
5:56 PM 99.0 °F 35.1 °F 11% 29.65 in 10.0 mi NW 12.7 mph - N/A   Clear
6:56 PM 96.1 °F 42.1 °F 15% 29.67 in 10.0 mi WNW 23.0 mph 33.4 mph N/A   Clear
7:56 PM 91.9 °F 42.1 °F 18% 29.68 in 10.0 mi NW 26.5 mph 32.2 mph N/A   Clear
8:56 PM 89.1 °F 43.0 °F 20% 29.70 in 10.0 mi NW 21.9 mph 31.1 mph N/A   Clear
9:56 PM 86.0 °F 41.0 °F 20% 29.72 in 10.0 mi NW 21.9 mph - N/A   Clear
10:56 PM 84.0 °F 39.9 °F 21% 29.72 in 10.0 mi NW 15.0 mph 23.0 mph N/A   Clear
11:56 PM 82.9 °F 43.0 °F 24% 29.73 in 10.0 mi NNW 16.1 mph - N/A   Clear